This demonstration page uses our WeatherBlox Daily Observations layout. Learn more.

Left ArrowRight Arrow

38.83388, -104.82136

Hourly Observations for April 13, 2017

Temp ( °F °C ) Dew Point ( °F °C ) Humidity (%) Winds ( mph kmh ) Pressure ( in mb ) Visibility ( mi km ) Precip ( " mm )
12:58 am 00:58 Clear 50 10.1 30 -1.3 45 45 WNW 8 13 29.73 1007 10 16 0.00 0.00
1:58 am 01:58 Clear 50 9.8 30 -1.1 47 47 Calm 29.72 1006 10 16 0.00 0.00
2:58 am 02:58 Clear 49 9.4 35 1.7 59 59 WNW 7 11 29.71 1006 10 16 0.00 0.00
3:58 am 03:58 Clear 49 9.6 34 1.3 57 57 Calm 29.71 1006 10 16 0.00 0.00
4:58 am 04:58 Clear 49 9.5 33 0.8 55 55 S 3 6 29.70 1006 10 16 0.00 0.00
5:58 am 05:58 Clear 49 9.4 34 0.9 56 56 Calm 29.70 1006 10 16 0.00 0.00
6:58 am 06:58 Sunny 51 10.4 32 0.2 50 50 Calm 29.70 1006 10 16 0.00 0.00
7:58 am 07:58 Sunny 52 11.1 33 0.7 49 49 Calm 29.70 1006 10 16 0.00 0.00
8:58 am 08:58 Sunny 55 12.9 34 1.2 45 45 ESE 7 11 29.68 1005 10 16 0.00 0.00
9:58 am 09:58 Sunny 58 14.6 38 3.1 46 46 ESE 12 19 29.67 1005 10 16 0.00 0.00
10:58 am 10:58 Sunny 61 16.1 39 3.7 44 44 SE 14 22 29.66 1004 10 16 0.00 0.00
11:58 am 11:58 Sunny 63 17.4 37 2.6 37 37 SE 16 26 29.64 1004 10 16 0.00 0.00
12:58 pm 12:58 Sunny 64 17.6 35 1.5 34 34 SSE 12 19 29.61 1003 10 16 0.00 0.00
1:58 pm 13:58 Sunny 65 18.3 32 -0.2 29 29 SE 14 22 29.58 1002 10 16 0.00 0.00
2:58 pm 14:58 Sunny 65 18.4 28 -2.2 25 25 SE 21 33 29.54 1000 10 16 0.00 0.00
3:04 pm 15:04 Sunny 66 19 28 -2 24 24 ESE 15 24 29.56 1001 10 16 0.00 0.00
3:58 pm 15:58 Sunny 66 18.7 28 -2.3 24 24 SSE 22 35 29.52 1000 10 16 0.00 0.00
4:58 pm 16:58 Sunny 64 18 28 -2.2 25 25 SSE 22 35 29.49 999 10 16 0.00 0.00
5:58 pm 17:58 Sunny 62 16.8 29 -1.5 29 29 SSE 16 26 29.51 999 10 16 0.00 0.00
6:58 pm 18:58 Sunny 61 15.9 31 -0.5 33 33 S 15 24 29.50 999 10 16 0.00 0.00
7:58 pm 19:58 Mostly Cloudy 60 15.3 31 -0.7 34 34 S 13 20 29.50 999 10 16 0.00 0.00
8:58 pm 20:58 Mostly Cloudy 56 13.6 38 3.3 50 50 SSE 18 30 29.50 999 10 16 0.00 0.00
9:58 pm 21:58 Clear 52 10.9 45 7 77 77 SSE 7 11 29.52 1000 10 16 0.00 0.00
10:58 pm 22:58 Clear 50 10 46 7.9 87 87 SSE 7 11 29.50 999 10 16 0.00 0.00
11:13 pm 23:13 Mostly Cloudy 50 10 46 8 88 88 SSE 6 9 29.71 1006 10 16 0.00 0.00
11:18 pm 23:18 Partly Cloudy 48 9 46 8 94 94 S 3 6 29.74 1007 10 16 0.00 0.00
11:58 pm 23:58 Mostly Clear 48 9 46 7.8 92 92 Calm 29.47 998 10 16 0.00 0.00

Powered by AerisWeather